TimeEDT,TemperatureF,Dew PointF,Humidity,Sea Level PressureIn,VisibilityMPH,Wind Direction,Wind SpeedMPH,Gust SpeedMPH,PrecipitationIn,Events,Conditions,WindDirDegrees,DateUTC
12:13 AM,50.0,50.0,100,30.16,2.0,Calm,Calm,-,N/A,,Clear,0,2012-10-23 04:13:00
12:14 AM,50.0,50.0,100,30.16,1.5,Calm,Calm,-,N/A,,Clear,0,2012-10-23 04:14:00
12:15 AM,50.0,50.0,100,30.16,1.0,Calm,Calm,-,N/A,,Clear,0,2012-10-23 04:15:00
12:16 AM,50.0,50.0,100,30.16,1.0,Calm,Calm,-,N/A,,Clear,0,2012-10-23 04:16:00
12:18 AM,50.0,50.0,100,30.16,1.0,Calm,Calm,-,N/A,,Clear,0,2012-10-23 04:18:00
12:19 AM,50.0,50.0,100,30.16,1.0,Calm,Calm,-,N/A,,Clear,0,2012-10-23 04:19:00
12:20 AM,50.0,50.0,100,30.16,1.0,Calm,Calm,-,N/A,,Clear,0,2012-10-23 04:20:00
12:22 AM,50.0,50.0,100,30.16,1.2,Calm,Calm,-,N/A,,Clear,0,2012-10-23 04:22:00
12:23 AM,50.0,50.0,100,30.16,1.5,Calm,Calm,-,N/A,,Clear,0,2012-10-23 04:23:00
12:24 AM,50.0,50.0,100,30.16,2.0,Calm,Calm,-,N/A,,Clear,0,2012-10-23 04:24:00
12:25 AM,50.0,50.0,100,30.15,3.0,Calm,Calm,-,N/A,,Clear,0,2012-10-23 04:25:00
12:55 AM,50.0,49.6,99,30.15,10.0,Calm,Calm,-,N/A,,Clear,0,2012-10-23 04:55:00
1:45 AM,50.0,50.0,100,30.14,4.0,Calm,Calm,-,N/A,,Clear,0,2012-10-23 05:45:00
1:53 AM,50.0,50.0,100,30.14,4.0,Calm,Calm,-,N/A,,Clear,0,2012-10-23 05:53:00
1:55 AM,49.8,49.5,99,30.14,4.0,Calm,Calm,-,N/A,,Clear,0,2012-10-23 05:55:00
1:57 AM,50.0,50.0,100,30.14,2.5,Calm,Calm,-,N/A,,Clear,0,2012-10-23 05:57:00
2:05 AM,48.2,48.2,100,30.14,3.0,Calm,Calm,-,N/A,,Clear,0,2012-10-23 06:05:00
2:47 AM,48.2,48.2,100,30.14,1.8,Calm,Calm,-,N/A,,Clear,0,2012-10-23 06:47:00
2:48 AM,48.2,48.2,100,30.14,1.5,Calm,Calm,-,N/A,,Clear,0,2012-10-23 06:48:00
2:49 AM,48.2,48.2,100,30.14,1.2,Calm,Calm,-,N/A,,Clear,0,2012-10-23 06:49:00
2:52 AM,48.2,48.2,100,30.14,1.2,Calm,Calm,-,N/A,,Clear,0,2012-10-23 06:52:00
2:54 AM,48.2,48.2,100,30.14,1.5,Calm,Calm,-,N/A,,Clear,0,2012-10-23 06:54:00
2:55 AM,48.4,48.2,99,30.13,1.5,Calm,Calm,-,N/A,,Clear,0,2012-10-23 06:55:00
2:56 AM,48.2,48.2,100,30.13,2.0,Calm,Calm,-,N/A,,Clear,0,2012-10-23 06:56:00
2:58 AM,48.2,48.2,100,30.13,4.0,Calm,Calm,-,N/A,,Clear,0,2012-10-23 06:58:00
3:55 AM,46.6,46.4,99,30.12,6.0,Calm,Calm,-,N/A,,Clear,0,2012-10-23 07:55:00
4:22 AM,46.4,46.4,100,30.12,2.5,Calm,Calm,-,N/A,,Clear,0,2012-10-23 08:22:00
4:26 AM,46.4,46.4,100,30.12,2.0,Calm,Calm,-,N/A,,Clear,0,2012-10-23 08:26:00
4:27 AM,46.4,46.4,100,30.12,2.0,Calm,Calm,-,N/A,,Clear,0,2012-10-23 08:27:00
4:28 AM,46.4,46.4,100,30.12,2.5,Calm,Calm,-,N/A,,Clear,0,2012-10-23 08:28:00
4:29 AM,46.4,46.4,100,30.12,3.0,Calm,Calm,-,N/A,,Clear,0,2012-10-23 08:29:00
4:55 AM,46.8,46.6,99,30.13,10.0,Calm,Calm,-,N/A,,Clear,0,2012-10-23 08:55:00
5:55 AM,46.4,46.2,99,30.14,10.0,NNW,3.5,-,N/A,,Clear,330,2012-10-23 09:55:00
6:55 AM,46.6,46.2,99,30.16,10.0,NNW,3.5,-,N/A,,Clear,340,2012-10-23 10:55:00
7:55 AM,45.3,45.0,99,30.16,9.0,NNW,3.5,-,N/A,,Clear,340,2012-10-23 11:55:00
8:55 AM,48.9,48.6,99,30.18,10.0,NNW,4.6,-,N/A,,Clear,340,2012-10-23 12:55:00
9:55 AM,55.4,55.0,99,30.19,10.0,North,5.8,-,N/A,,Clear,360,2012-10-23 13:55:00
10:55 AM,65.7,53.6,65,30.19,10.0,Calm,Calm,-,N/A,,Clear,0,2012-10-23 14:55:00
11:55 AM,72.1,53.2,51,30.18,10.0,South,5.8,-,N/A,,Clear,170,2012-10-23 15:55:00
12:55 PM,75.7,48.7,38,30.16,10.0,Calm,Calm,-,N/A,,Clear,0,2012-10-23 16:55:00
1:55 PM,78.4,48.2,34,30.12,10.0,SSE,4.6,-,N/A,,Clear,150,2012-10-23 17:55:00
2:55 PM,80.2,48.7,33,30.10,10.0,SE,6.9,-,N/A,,Clear,140,2012-10-23 18:55:00
3:55 PM,81.1,52.0,36,30.08,10.0,Variable,6.9,-,N/A,,Clear,0,2012-10-23 19:55:00
4:55 PM,80.1,52.2,38,30.08,10.0,South,3.5,-,N/A,,Clear,170,2012-10-23 20:55:00
5:55 PM,80.6,54.1,40,30.08,10.0,Calm,Calm,-,N/A,,Clear,0,2012-10-23 21:55:00
6:55 PM,70.3,56.5,61,30.08,10.0,Calm,Calm,-,N/A,,Clear,0,2012-10-23 22:55:00
7:55 PM,60.8,55.0,81,30.10,10.0,Calm,Calm,-,N/A,,Clear,0,2012-10-23 23:55:00
8:55 PM,58.6,55.0,88,30.11,10.0,Calm,Calm,-,N/A,,Clear,0,2012-10-24 00:55:00
9:55 PM,55.9,54.3,94,30.11,10.0,Calm,Calm,-,N/A,,Clear,0,2012-10-24 01:55:00
10:55 PM,55.2,53.6,94,30.12,10.0,Calm,Calm,-,N/A,,Clear,0,2012-10-24 02:55:00
11:55 PM,54.7,54.3,99,30.12,10.0,Calm,Calm,-,N/A,,Clear,0,2012-10-24 03:55:00